Вернуться в каталог

ALOS 2

АктивенНаукаSSO
NORAD 39766·PAYLOAD·🇯🇵 Japan

Запущен May 24, 2014 с Tanegashima Space Center

Loading…

Ближайшие Пролёты (ближайшие 24 часа)

TLE

СвежийSource: Space-Track

Эпоха: Sep 14, 2026, 14:49 UTC

1 39766U 14029A   26257.61743378  .00000931  00000-0  13151-3 0  9995
2 39766  97.9227 353.5004 0001479  99.0490 261.0889 14.79466881664803

Отслеживайте ALOS 2 в реальном времени с AllMySat

Download on the App Store